User: anonymous   Login
Location: Unspecified
(0.0000°N, 0.0000°E)
Time: 02:31:04
(UTC+00:00)
Language:

XM-5 - Orbit

View from above orbital plane
View from above orbital plane
View from above satellite
View from above satellite

Ground track
Ground track

The orbit data is extracted from the following two-line orbital elements,

1 37185U 10053A   21206.26572685 -.00000221  00000-0  00000-0 0  9991
2 37185   0.0113 111.1635 0001023 124.4270  78.1013  1.00271843 39553
Epoch (UTC): 25 July 2021 06:22:38
Eccentricity: 0.0001023
inclination: 0.0113°
perigee height: 35782 km
apogee height: 35790 km
right ascension of ascending node: 111.1635°
argument of perigee: 124.4270°
revolutions per day: 1.00271843
mean anomaly at epoch: 78.1013°
orbit number at epoch: 3955

The dashed part of the orbit path shows where the satellite is in the earth's shadow,  

DLR